Search for airport 
image banner adimage banner adimage banner ad
image banner ad

9D4 - Deck

Located in Myerstown, United States

ICAO - 9D4, IATA -

Data provided by Airmate  

General information

Coordinates: N40°21'8" W76°19'47"
Elevation is 523 feet MSL.
Magnetic variation is -09° East
View others Airports in Pennsylvania

Operational data

Special qualification required
Current time UTC:
Current local time:
METAR: KMUI 131945Z AUTO 23005KT 7SM -DZ SCT008 OVC017 22/20 A2990 RMK AO2 DZB45 SLP126
View NOTAMs / SUP AIP / TFR affecting this airport [VIEW]
Communications frequencies: [VIEW]

Runways:

RWY identifierQFULength (ft)Width (ft)SurfaceLDA (ft)
01354°378650ASPH
19174°378650ASPH

Airport contact information

Address: Myerstown United States

Other aviation service providers

Flight schools

Deck Airport

Deck Airport
lrdeck@gmail.com+1(717)866-6529

Satellite view of 9D4